Overview Statistics Trail Chart Weather Telemetry Raw packets
 

This is the latest recevied weather packets stored in our database for station/object EA4BHK-10. If no packets are shown the sender has not sent any weather packets the latest 10 day(s).

<< 33 34 35 36 37 38 39 >>
Time Temp. Humidity Pressure Rain* Wind** Luminosity Snow
1787794646 17.22° C 40% 1014.5 hPa - - - -
1787793746 17.22° C 41% 1014.6 hPa - - - -
1787792846 17.22° C 40% 1014.7 hPa - - - -
1787791946 17.78° C 40% 1014.8 hPa - - - -
1787791046 17.78° C 38% 1014.6 hPa - - - -
1787790146 17.78° C 37% 1014.6 hPa - - - -
1787789246 18.33° C 36% 1014.4 hPa - - - -
1787788346 18.33° C 36% 1014.4 hPa - - - -
1787787446 18.89° C 34% 1014.2 hPa - - - -
1787786546 19.44° C 32% 1013.9 hPa - - - -
1787784746 20.56° C 29% 1013.5 hPa - - - -
1787783846 20.56° C 30% 1013.2 hPa - - - -
1787782946 20° C 32% 1013.5 hPa - - - -
1787782046 19.44° C 35% 1013.5 hPa - - - -
1787781146 20° C 35% 1013.2 hPa - - - -
1787780246 20° C 33% 1013.1 hPa - - - -
1787779346 20.56° C 32% 1012.7 hPa - - - -
1787778446 20.56° C 32% 1012.8 hPa - - - -
1787777546 20.56° C 29% 1012.9 hPa - - - -
1787776646 20.56° C 30% 1012.7 hPa - - - -
1787775746 20.56° C 29% 1012.6 hPa - - - -
1787774846 21.11° C 27% 1012.1 hPa - - - -
1787773946 22.22° C 25% 1011.7 hPa - - - -
1787773046 22.78° C 23% 1011.2 hPa - - - -
1787772146 23.33° C 21% 1010.8 hPa - - - -

* Rain since midnight (hover to see other rain measurements)
** Current wind speed in m/s (hover to see current wind gust speed)